This demonstration page uses our WeatherBlox Daily Observations layout. Learn more.

38.88101, -77.10428

Hourly Observations for January 4, 2016

Temp ( °F °C ) Dew Point ( °F °C ) Humidity (%) Winds ( mph kmh ) Pressure ( in mb ) Visibility ( mi km ) Precip ( " mm )
12:52 am 00:52 Partly Cloudy 36 2 25 -4 65 65 NNW 7 11 29.97 1015 10 16.09344 0 0
1:52 am 01:52 Partly Cloudy 36 2 25 -4 65 65 NNW 5 7 29.97 1015 10 16.09344 0 0
2:52 am 02:52 Mostly Clear 36 2 23 -5 60 60 NNW 5 7 29.97 1015 10 16.09344 0 0
3:52 am 03:52 Mostly Clear 34 1 25 -4 70 70 NNW 8 13 29.97 1015 10 16.09344 0 0
4:52 am 04:52 Mostly Clear 36 2 25 -4 65 65 NNW 10 17 30 1016 10 16.09344 0 0
5:52 am 05:52 Partly Cloudy 34 1 21 -6 60 60 NNW 9 15 30.03 1017 10 16.09344 0 0
6:52 am 06:52 Mostly Cloudy 34 1 21 -6 60 60 NW 10 17 30.03 1017 10 16.09344 0 0
7:52 am 07:52 Mostly Cloudy 36 2 19 -7 52 52 NNW 16 26 30.06 1018 10 16.09344 0 0
8:52 am 08:52 Partly Cloudy 34 1 12 -11 41 41 NNW 24 39 30.09 1019 10 16.09344 0 0
9:52 am 09:52 Mostly Cloudy 34 1 14 -10 44 44 NW 16 26 30.12 1020 10 16.09344 0 0
10:52 am 10:52 Mostly Sunny 36 2 16 -9 44 44 NNW 18 30 30.12 1020 10 16.09344 0 0
11:52 am 11:52 Partly Cloudy 37 3 16 -9 41 41 NNW 21 33 30.12 1020 10 16.09344 0 0
12:52 pm 12:52 Partly Cloudy 36 2 10 -12 35 35 NNW 23 37 30.12 1020 10 16.09344 0 0
1:52 pm 13:52 Partly Cloudy 37 3 10 -12 33 33 NNW 21 33 30.12 1020 10 16.09344 0 0
2:52 pm 14:52 Partly Cloudy 37 3 10 -12 33 33 N 23 37 30.12 1020 10 16.09344 0 0
3:52 pm 15:52 Mostly Cloudy 34 1 9 -13 35 35 NNW 18 30 30.18 1022 10 16.09344 0 0
4:52 pm 16:52 Mostly Cloudy 32 0 7 -14 34 34 N 24 39 30.21 1023 10 16.09344 0 0
5:52 pm 17:52 Mostly Clear 30 -1 5 -15 34 34 NW 17 28 30.24 1024 10 16.09344 0 0
6:52 pm 18:52 Mostly Clear 30 -1 5 -15 34 34 NNW 21 33 30.3 1026 10 16.09344 0 0
7:52 pm 19:52 Mostly Clear 28 -2 5 -15 37 37 N 24 39 30.33 1027 10 16.09344 0 0
8:52 pm 20:52 Mostly Clear 27 -3 7 -14 43 43 N 21 33 30.36 1028 10 16.09344 0 0
9:52 pm 21:52 Mostly Clear 27 -3 3 -16 36 36 N 20 31 30.39 1029 10 16.09344 0 0
10:52 pm 22:52 Clear 25 -4 3 -16 39 39 N 18 30 30.42 1030 10 16.09344 0 0
11:52 pm 23:52 Clear 21 -6 1 -17 42 42 N 24 39 30.45 1031 10 16.09344 0 0

Powered by AerisWeather